AirNav  
 
 1187 users online  

5B7 Rensselaer County Airport
Troy, New York, USA

GOING TO TROY?


FAA INFORMATION EFFECTIVE 29 MARCH 2018

Location

FAA Identifier: 5B7
Lat/Long: 42-41-29.9000N / 073-34-47.9000W
42-41.498333N / 073-34.798333W
42.6916389 / -73.5799722
(estimated)
Elevation: 440 ft. / 134 m (estimated)
Variation: 14W (1985)
From city: 6 miles SE of TROY, NY
Time zone: UTC -4 (UTC -5 during Standard Time)
Zip code: 12140

Airport Operations

Airport use: Open to the public
Activation date: 06/1969
Control tower: no
ARTCC: BOSTON CENTER
FSS: BURLINGTON FLIGHT SERVICE STATION
NOTAMs facility: BTV (NOTAM-D service available)
Attendance: UNATNDD
Pattern altitude: 1500 ft. MSL
Wind indicator: yes
Segmented circle: no

Airport Communications

CTAF/UNICOM: 122.7
WX ASOS at ALB (10 nm W): PHONE 518-464-6423
WX ASOS at AQW (18 nm E): 134.775 (413-664-6658)
WX AWOS-3 at SCH (18 nm NW): 119.275 (518-399-6586)
WX ASOS at DDH (19 nm NE): 135.925 (802-442-6059)

Nearby radio navigation aids

VOR radial/distance  VOR name  Freq  Var
ALBr122/10.4ALBANY VORTAC115.3013W
CAMr224/20.9CAMBRIDGE VOR/DME115.0014W
CTRr324/36.8CHESTER VOR/DME115.1013W
GFLr192/39.0GLENS FALLS VORTAC110.2014W

 
NDB name  Hdg/Dist  Freq  Var  ID
HUNTER136/18.435614WHEU .... . ..-
PHILMONT027/27.127213WPFH .--. ..-. ....
GREAT BARRINGTON360/31.539514WGBR --. -... .-.
JOHNSTOWN133/37.952314WJJH .--- .--- ....

Airport Services

Parking: tiedowns

Runway Information

Runway 18/36

Dimensions: 2670 x 50 ft. / 814 x 15 m
RY 18 FIRST 40 FT OVERGROWN WITH GRASS.
Surface: asphalt, in poor condition
RY 18/36 PAVEMENT CRACKED, LOOSE ROCKS & VEGETATION.
Weight bearing capacity: 
Single wheel: 8.0
Runway edge markings: MARKING NUMBERS FADED
RUNWAY 18  RUNWAY 36
Latitude: 42-41.706333N42-41.290422N
Longitude: 073-34.895532W073-34.702262W
Elevation: 436.0 ft.438.0 ft.
Traffic pattern: leftleft
Runway heading: 175 magnetic, 161 true355 magnetic, 341 true
Markings: numbers only, in poor condition
Obstructions: 30 ft. trees, 395 ft. from runway, 70 ft. right of centerline, 6:1 slope to clear88 ft. trees, 230 ft. from runway, 110 ft. left and right of centerline

Airport Ownership and Management from official FAA records

Ownership: Privately-owned
Owner: DU THIS DU THAT INC
PO BOX 304
POSTENKILL, NY 12140
Phone (518) 596-5947
Manager: GEORGE DUJACK, JR.
P.O. 304
POSTENKILL, NY 12140
Phone (518) 596-5947

Airport Operational Statistics

Aircraft operations: avg 67/month *
94% local general aviation
6% transient general aviation
* for 12-month period ending 21 September 2016

Additional Remarks

DEER & BIRDS ON & INVOF ARPT.
SURROUNDING TERRAIN SLOPES DOWN TO RY; DUE TO HIGHER SURROUNDING TERRAIN RECOMMEND USE OF THE FOLLOWING PROCEDURES: DEP RY 36 - USE BEST ANGLE OF CLIMB SPEED UNTIL WELL CLEAR OF RESIDENTIAL AREA N OF RY 36;
ARRIVALS RY 18 - MAINTAIN SUFFICIENT ALT ON FINAL SO AS TO AVOID LOW ALT AND/OR HIGH POWER OVER RESIDENTIAL AREA WHICH UNDERLIES FINAL APCH TO RY 18. DEPARTURES RY 18 & ARRIVALS RY 36 - USE NORMAL PROCEDURES.
TRANSIENT ACFT CALL (518) 596-5947 FOR FIELD CONDS PRIOR TO ARR.

Instrument Procedures

There are no published instrument procedures at 5B7.

Some nearby airports with instrument procedures:

KALB - Albany International Airport (10 nm W)
4B0 - South Albany Airport (14 nm SW)
KAQW - Harriman-and-West Airport (18 nm E)
KSCH - Schenectady County Airport (18 nm NW)
KDDH - William H Morse State Airport (19 nm NE)
 
Loc | Ops | Rwys | IFR | FBO | Links
Com | Nav | Svcs | Stats | Notes

AirNav Hotels Sweepstakes
 
Area around 5B7 (Rensselaer County Airport)
 
Road maps at: MapQuest Bing Google
 
Aerial photo
WARNING: Photo may not be current or correct
Aerial photo of 5B7 (Rensselaer County Airport)
Do you have a better or more recent aerial photo of Rensselaer County Airport that you would like to share? If so, please send us your photo.

 
Sectional chart

 
Airport distance calculator
Flying to Rensselaer County Airport? Find the distance to fly.

From to 5B7

Sunrise and sunset
Times for 20-Apr-2018
 Local
(UTC-4)
 Zulu
(UTC)
Morning civil twilight05:3609:36
Sunrise06:0610:06
Sunset19:4123:41
Evening civil twilight20:1000:10

Current date and time
Zulu (UTC)  20-Apr-2018 21:25:31
Local (UTC-4)  20-Apr-2018 17:25:31
 
METAR
KALB 
10nm W 
202051Z 28016G24KT 10SM BKN050 08/M04 A3024 RMK AO2 PK WND 27026/2014 SLP241 T00781039 53013
KSCH 
18nm NW 
202058Z 28017G23KT 15SM BKN047 07/M03 A3024
KAQW 
18nm E 
202052Z AUTO 26016G21KT 10SM OVC050 06/M04 A3017 RMK AO2 PK WND 27026/2039 SLP224 T00561039 53014
KDDH 
19nm NE 
202054Z AUTO 29014G18KT 10SM OVC049 06/M05 A3017 RMK AO2 SLP223 T00611050 53015
KPSF 
20nm SE 
202054Z AUTO 29014G24KT 10SM OVC044 05/M05 A3016 RMK AO2 SLP221 T00501050 53014
TAF
KALB 
10nm W 
201731Z 2018/2118 30014G23KT P6SM BKN050 FM210000 30012KT P6SM SCT050 FM210400 32005KT P6SM FEW050 FM211400 32012KT P6SM FEW050
NOTAMs
Click for the latest NOTAMs
NOTAMs are issued by the DoD/FAA and will open in a separate window not controlled by AirNav.

 

 
 

Would you like to see your business listed on this page?

 If your business provides an interesting product or service to pilots, flight crews, aircraft, or users of the Rensselaer County Airport, you should consider listing it here.  To start the listing process, click on the button below
 
Add a business
 

Other Pages about Rensselaer County Airport

Update a link
 
Copyright © AirNav, LLC. All rights reserved. Privacy Policy  Contact